Miscellaneous Local Product
Issued by NWS North Platte, NE

Home | Current Version | Previous Version | Text Only | Print | Product List | Glossary On
Versions: 1 2 3 4 5 6 7 8 9 10 11 12 13 14 15 16 17 18 19 20 21 22 23 24 25 26 27 28 29 30 31 32 33 34 35 36 37 38 39 40 41 42 43 44 45 46 47 48 49 50
000
AXUS43 KLBF 280110
MISLBF


WESTERN AND NORTH CENTRAL NEBRASKA HOURLY WEATHER ROUNDUP
NATIONAL WEATHER SERVICE NORTH PLATTE NE
700 PM CST TUE JAN 27 2015

***STATIONS NOT REPORTING VARIABLES SUCH AS SKY/WEATHER OR
PRESSURE ARE PROVIDED BY THE NEBRASKA DEPARTMENT OF
ROADS...RAWS...AND APRS NETWORKS...AND ARE NOT UNDER
NATIONAL WEATHER SERVICE QUALITY CONTROL***

...OBSERVATIONS IN AND NEAR THE EASTERN PANHANDLE OF NEBRASKA...

CITY           SKY/WX    TMP DP  RH WIND       PRES   REMARKS
PINE RIDGE     PTCLDY    43  30  60 CALM      29.90F
CHADRON        CLOUDY    46  34  62 SW6       29.90F
ALLIANCE       CLOUDY    44  28  53 S6        29.93F
SIDNEY         MOCLDY    41  31  67 SW9       29.98S
WHITECLAY        N/A     41  27  58 SE6         N/A
CRESCENT LAKE    N/A     57  24  28 CALM        N/A
LISCO            N/A     51  24  35 CALM        N/A
LEWELLEN         N/A     46  22  38 S7          N/A
$$

...OBSERVATIONS IN NORTH CENTRAL NEBRASKA...

CITY           SKY/WX    TMP DP  RH WIND       PRES   REMARKS
VALENTINE      CLEAR     43  31  62 SW3       29.88S
THEDFORD       CLEAR     55  33  41 SW3       29.91S
AINSWORTH      CLEAR     44  32  61 SE5       29.88F
O`NEILL        CLEAR     46  37  68 SE8       29.92S
ORD            CLEAR     45  32  60 E3        29.91S
BROKEN BOW     CLEAR     39  29  67 CALM      29.91S
BROWNLEE         N/A     62  26  25 CALM        N/A
VALENTINE NWR    N/A     55  27  34 CALM        N/A
SPRINGVIEW       N/A     44  33  64 CALM        N/A
BREWSTER         N/A     47  33  57 CALM        N/A
ROSE             N/A     52  37  58 E7          N/A
NEWPORT          N/A     48  36  62 S8          N/A
SARGENT          N/A     48  36  63 CALM        N/A
COMSTOCK         N/A     54  34  47 S12         N/A
CHAMBERS         N/A     42  29  61 E3          N/A
EWING            N/A     44  37  75 E3          N/A
$$

...OBSERVATIONS IN SOUTHWEST NEBRASKA AND FAR NORTHEAST COLORADO...

CITY           SKY/WX    TMP DP  RH WIND       PRES   REMARKS
WRAY           FAIR      64  26  24 E5        29.96S
HOLYOKE        FAIR      54  30  40 E3        29.96S
IMPERIAL       MOCLDY    54  27  35 NE3       29.94F
OGALLALA       CLOUDY    46  31  56 CALM      29.94S
NORTH PLATTE   PTCLDY    44  26  49 E3        29.93R
MCCOOK         PTCLDY    58  30  34 S5        29.92F
LEXINGTON      CLEAR     54  33  45 SE6       29.92S
BRADY            N/A     51  30  44 CALM        N/A
GOTHENBURG       N/A     57  29  34 CALM        N/A
CALLAWAY         N/A     51  33  51 SE3         N/A
$$

...NORTH PLATTE AREA...

CITY           SKY/WX    TMP DP  RH WIND       PRES   REMARKS
AIRPORT        PTCLDY    44  26  49 E3        29.93R
DOWNTOWN         N/A     56  29  35 CALM        N/A
$$

...SOME WEATHER OBSERVATIONS FROM AROUND THE REGION...

CITY           SKY/WX    TMP DP  RH WIND       PRES   REMARKS
DENVER         PTCLDY    55  33  43 E6        30.01S
LARAMIE        PTCLDY    46  20  35 SW12      30.13S
CHEYENNE       CLEAR     50  19  29 W9        30.07R
SCOTTSBLUFF      N/A    N/A N/A N/A MISG      29.96R
RAPID CITY     MOCLDY    46  30  53 CALM      29.84F
PIERRE         CLEAR     44  35  70 SE8       29.84S
WINNER         FAIR      48  36  63 SE12      29.86S
SIOUX FALLS    CLEAR     38  34  85 SE12      29.98F WCI  30
OMAHA          CLEAR     43  31  62 SE12      30.05R
GRAND ISLAND   CLEAR     51  33  50 SE9       29.95S
KANSAS CITY    CLEAR     47  31  53 E12       30.09R
WICHITA        CLEAR     60  36  40 S12       29.99S
HAYS           PTCLDY    61  25  25 SW8       29.95S
LIBERAL        MOCLDY    57  28  33 SW10      30.05S
GOODLAND       MOCLDY    50  30  46 S10       29.98S
$$



USA.gov is the U.S. government's official web portal to all federal, state and local government web resources and services.